�������l�o���
Date,Time,MP-1(��Sv/h),MP-2(��Sv/h),MP-3(��Sv/h),MP-4(��Sv/h),MP-5(��Sv/h),MP-6(��Sv/h),MP-7(��Sv/h),MP-8(��Sv/h),����,����(m/s),���J
2019/04/28,00:00,0.734,1.063,0.740,1.362,0.991,0.426,0.758,0.720,�k,3.7,��
2019/04/28,00:10,0.735,1.063,0.738,1.361,0.992,0.427,0.757,0.719,�k,3.2,��
2019/04/28,00:20,0.735,1.062,0.740,1.362,0.989,0.426,0.758,0.719,�k,3.3,��
2019/04/28,00:30,0.734,1.060,0.741,1.360,0.990,0.427,0.757,0.720,�k,2.5,��
2019/04/28,00:40,0.732,1.063,0.741,1.359,0.991,0.427,0.759,0.719,�k�k��,2.3,��
2019/04/28,00:50,0.736,1.063,0.739,1.362,0.989,0.427,0.756,0.720,�k�k��,2.5,��
2019/04/28,01:00,0.733,1.064,0.740,1.359,0.991,0.426,0.759,0.719,�k�k��,2.0,��
2019/04/28,01:10,0.734,1.063,0.742,1.363,0.991,0.425,0.757,0.720,�k�k��,2.5,��
2019/04/28,01:20,0.733,1.066,0.741,1.359,0.989,0.426,0.757,0.719,�k�k��,1.7,��
2019/04/28,01:30,0.734,1.064,0.740,1.358,0.990,0.425,0.757,0.719,�k�k��,1.7,��
2019/04/28,01:40,0.735,1.065,0.740,1.360,0.988,0.425,0.758,0.721,�k�k��,2.6,��
2019/04/28,01:50,0.733,1.063,0.739,1.360,0.988,0.427,0.758,0.719,�k�k��,1.2,��
2019/04/28,02:00,0.733,1.062,0.740,1.360,0.991,0.425,0.756,0.720,�k�k��,1.7,��
2019/04/28,02:10,0.734,1.061,0.738,1.361,0.988,0.426,0.755,0.719,�k,2.2,��
2019/04/28,02:20,0.733,1.063,0.740,1.359,0.990,0.427,0.757,0.719,�k,1.9,��
2019/04/28,02:30,0.734,1.062,0.741,1.361,0.987,0.426,0.756,0.719,�k�k��,0.8,��
2019/04/28,02:40,0.733,1.061,0.741,1.359,0.990,0.426,0.756,0.718,�k�k��,1.2,��
2019/04/28,02:50,0.733,1.062,0.741,1.357,0.990,0.426,0.755,0.719,�k�k��,0.9,��
2019/04/28,03:00,0.733,1.061,0.741,1.358,0.990,0.427,0.757,0.719,-,CALM,��
2019/04/28,03:10,0.732,1.060,0.740,1.359,0.988,0.426,0.757,0.719,-,CALM,��
2019/04/28,03:20,0.734,1.063,0.738,1.361,0.991,0.427,0.756,0.718,�k�k��,0.9,��
2019/04/28,03:30,0.733,1.060,0.740,1.360,0.990,0.427,0.757,0.717,�k�k��,1.2,��
2019/04/28,03:40,0.733,1.061,0.740,1.361,0.989,0.425,0.757,0.717,�k��,2.2,��
2019/04/28,03:50,0.733,1.063,0.737,1.360,0.989,0.427,0.756,0.720,�k��,2.0,��
2019/04/28,04:00,0.733,1.060,0.739,1.361,0.990,0.426,0.757,0.718,�k�k��,2.3,��
2019/04/28,04:10,0.735,1.061,0.740,1.360,0.988,0.427,0.757,0.718,�k�k��,2.6,��
2019/04/28,04:20,0.733,1.063,0.739,1.361,0.988,0.425,0.757,0.718,�k�k��,3.3,��
2019/04/28,04:30,0.732,1.062,0.739,1.360,0.988,0.425,0.757,0.718,�k�k��,4.3,��
2019/04/28,04:40,0.731,1.062,0.740,1.361,0.990,0.426,0.754,0.718,�k��,5.4,��
2019/04/28,04:50,0.731,1.062,0.738,1.360,0.989,0.426,0.756,0.720,���k��,2.2,��
2019/04/28,05:00,0.733,1.062,0.739,1.357,0.989,0.427,0.757,0.718,��,2.9,��
2019/04/28,05:10,0.731,1.059,0.740,1.360,0.989,0.426,0.756,0.717,���k��,2.0,��
2019/04/28,05:20,0.734,1.061,0.739,1.360,0.987,0.426,0.756,0.719,��,1.9,��
2019/04/28,05:30,0.732,1.061,0.739,1.361,0.987,0.426,0.756,0.719,��,1.7,��
2019/04/28,05:40,0.732,1.062,0.740,1.359,0.990,0.426,0.755,0.718,���k��,3.1,��
2019/04/28,05:50,0.733,1.063,0.740,1.360,0.988,0.427,0.755,0.719,���k��,3.3,��
2019/04/28,06:00,0.733,1.062,0.740,1.359,0.990,0.427,0.755,0.718,�k��,3.5,��
2019/04/28,06:10,0.733,1.064,0.739,1.361,0.988,0.426,0.756,0.717,���k��,3.1,��
2019/04/28,06:20,0.733,1.064,0.739,1.361,0.990,0.427,0.757,0.720,�k��,3.2,��
2019/04/28,06:30,0.734,1.063,0.740,1.360,0.990,0.427,0.757,0.719,���k��,3.9,��
2019/04/28,06:40,0.737,1.064,0.740,1.360,0.987,0.427,0.757,0.719,���k��,3.0,��
2019/04/28,06:50,0.733,1.062,0.740,1.362,0.990,0.428,0.758,0.718,��,2.2,��
2019/04/28,07:00,0.735,1.063,0.740,1.364,0.989,0.428,0.759,0.719,�쐼,1.1,��
2019/04/28,07:10,0.735,1.066,0.741,1.363,0.990,0.429,0.759,0.720,�쐼,0.9,��
2019/04/28,07:20,0.734,1.065,0.741,1.361,0.992,0.427,0.757,0.721,���k��,2.3,��
2019/04/28,07:30,0.735,1.065,0.742,1.362,0.989,0.428,0.759,0.722,��,1.5,��
2019/04/28,07:40,0.735,1.065,0.742,1.363,0.994,0.427,0.759,0.720,�k��,1.9,��
2019/04/28,07:50,0.736,1.065,0.741,1.365,0.995,0.426,0.759,0.720,�k�k��,0.6,��
2019/04/28,08:00,0.737,1.064,0.743,1.364,0.993,0.426,0.760,0.722,�k,3.9,��
2019/04/28,08:10,0.736,1.067,0.742,1.364,0.992,0.428,0.760,0.720,�k�k��,4.0,��
2019/04/28,08:20,0.738,1.067,0.744,1.366,0.993,0.427,0.760,0.721,�k�k��,5.3,��
2019/04/28,08:30,0.740,1.070,0.744,1.366,0.995,0.429,0.761,0.721,�k�k��,6.4,��
2019/04/28,08:40,0.738,1.068,0.744,1.365,0.995,0.427,0.758,0.721,�k��,9.1,��
2019/04/28,08:50,0.740,1.069,0.743,1.366,0.997,0.428,0.759,0.718,�k�k��,7.8,��
2019/04/28,09:00,0.739,1.070,0.743,1.368,0.996,0.428,0.758,0.719,�k��,6.4,��
2019/04/28,09:10,0.740,1.069,0.744,1.367,0.997,0.427,0.758,0.719,�k�k��,7.5,��
2019/04/28,09:20,0.740,1.072,0.744,1.367,0.998,0.427,0.758,0.717,�k�k��,7.4,��
2019/04/28,09:30,0.741,1.072,0.746,1.368,0.997,0.427,0.758,0.719,�k�k��,7.2,��
2019/04/28,09:40,0.742,1.072,0.746,1.369,1.000,0.428,0.758,0.718,�k�k��,7.9,��
2019/04/28,09:50,0.739,1.072,0.745,1.370,0.999,0.428,0.758,0.719,�k�k��,6.7,��
2019/04/28,10:00,0.742,1.073,0.748,1.370,0.997,0.428,0.758,0.718,�k�k��,7.5,��
2019/04/28,10:10,0.741,1.075,0.746,1.371,0.999,0.427,0.760,0.718,�k,8.2,��
2019/04/28,10:20,0.740,1.075,0.748,1.371,0.999,0.428,0.759,0.719,�k,7.5,��
2019/04/28,10:30,0.743,1.078,0.748,1.372,1.001,0.428,0.759,0.719,�k�k��,5.7,��
2019/04/28,10:40,0.740,1.077,0.746,1.374,1.001,0.428,0.759,0.718,�k��,5.7,��
2019/04/28,10:50,0.739,1.077,0.748,1.373,1.000,0.427,0.759,0.719,�k�k��,6.1,��
2019/04/28,11:00,0.741,1.078,0.748,1.374,1.001,0.426,0.760,0.719,�k��,6.3,��
2019/04/28,11:10,0.740,1.078,0.748,1.374,1.000,0.428,0.759,0.718,�k��,5.9,��
2019/04/28,11:20,0.744,1.079,0.747,1.375,1.001,0.428,0.761,0.718,�k��,6.2,��
2019/04/28,11:30,0.742,1.078,0.748,1.375,1.000,0.428,0.759,0.720,�k��,5.9,��
2019/04/28,11:40,0.742,1.077,0.747,1.374,1.001,0.426,0.759,0.721,�k��,5.3,��
2019/04/28,11:50,0.743,1.081,0.747,1.373,1.005,0.427,0.759,0.720,�k��,5.3,��
2019/04/28,12:00,0.741,1.084,0.748,1.373,1.004,0.427,0.760,0.719,�k��,5.3,��
2019/04/28,12:10,0.743,1.082,0.747,1.373,1.005,0.429,0.759,0.720,�k��,5.0,��
2019/04/28,12:20,0.744,1.081,0.746,1.371,1.005,0.429,0.759,0.720,��,4.1,��
2019/04/28,12:30,0.745,1.081,0.747,1.372,1.008,0.428,0.759,0.720,��,3.3,��
2019/04/28,12:40,0.744,1.082,0.747,1.375,1.005,0.428,0.759,0.720,��쓌,3.3,��
2019/04/28,12:50,0.744,1.081,0.749,1.375,1.007,0.429,0.759,0.720,��쓌,3.4,��
2019/04/28,13:00,0.742,1.083,0.748,1.379,1.007,0.429,0.761,0.720,��,2.3,��
2019/04/28,13:10,0.744,1.085,0.748,1.374,1.006,0.428,0.761,0.722,��,1.4,��
2019/04/28,13:20,0.744,1.082,0.748,1.376,1.006,0.427,0.761,0.721,���k��,1.4,��
2019/04/28,13:30,0.745,1.083,0.749,1.377,1.007,0.428,0.761,0.720,�쓌,1.5,��
2019/04/28,13:40,0.747,1.085,0.749,1.379,1.009,0.430,0.761,0.721,���k��,2.6,��
2019/04/28,13:50,0.745,1.084,0.750,1.378,1.008,0.429,0.762,0.720,�k,2.9,��
2019/04/28,14:00,0.747,1.087,0.749,1.378,1.008,0.429,0.761,0.720,�k,2.6,��
2019/04/28,14:10,0.745,1.087,0.750,1.377,1.008,0.430,0.762,0.721,���쓌,2.6,��
2019/04/28,14:20,0.745,1.087,0.748,1.380,1.008,0.430,0.761,0.722,��쓌,2.9,��
2019/04/28,14:30,0.745,1.089,0.750,1.380,1.009,0.430,0.761,0.721,��,1.7,��
2019/04/28,14:40,0.746,1.088,0.750,1.380,1.011,0.429,0.762,0.722,���쓌,1.7,��
2019/04/28,14:50,0.747,1.089,0.750,1.375,1.011,0.429,0.761,0.720,���쓌,1.2,��
2019/04/28,15:00,0.746,1.089,0.750,1.376,1.011,0.429,0.762,0.721,��,1.7,��
2019/04/28,15:10,0.747,1.091,0.749,1.377,1.008,0.429,0.762,0.720,���쓌,1.9,��
2019/04/28,15:20,0.747,1.087,0.750,1.376,1.012,0.429,0.762,0.722,��쓌,2.5,��
2019/04/28,15:30,0.744,1.089,0.750,1.372,1.011,0.430,0.763,0.722,��쓌,2.8,��
2019/04/28,15:40,0.745,1.088,0.751,1.378,1.010,0.429,0.761,0.722,��쓌,2.8,��
2019/04/28,15:50,0.745,1.089,0.752,1.378,1.012,0.432,0.761,0.720,��쓌,2.9,��
2019/04/28,16:00,0.747,1.091,0.751,1.378,1.011,0.432,0.761,0.721,��쓌,2.2,��
2019/04/28,16:10,0.748,1.092,0.751,1.379,1.012,0.431,0.761,0.721,��쓌,2.5,��
2019/04/28,16:20,0.746,1.093,0.752,1.377,1.012,0.431,0.762,0.720,��쓌,2.8,��
2019/04/28,16:30,0.747,1.093,0.752,1.378,1.012,0.435,0.762,0.722,��쓌,3.5,��
2019/04/28,16:40,0.747,1.093,0.751,1.376,1.011,0.433,0.762,0.721,��,4.3,��
2019/04/28,16:50,0.746,1.094,0.751,1.378,1.011,0.431,0.762,0.721,��,2.9,��
2019/04/28,17:00,0.747,1.095,0.752,1.380,1.011,0.432,0.762,0.721,��쓌,3.7,��
2019/04/28,17:10,0.747,1.095,0.752,1.380,1.012,0.433,0.763,0.723,��,4.1,��
2019/04/28,17:20,0.746,1.096,0.753,1.380,1.011,0.432,0.761,0.723,��,3.4,��
2019/04/28,17:30,0.748,1.097,0.753,1.380,1.012,0.434,0.763,0.724,��,4.4,��
2019/04/28,17:40,0.748,1.094,0.751,1.381,1.010,0.433,0.763,0.725,��,5.0,��
2019/04/28,17:50,0.750,1.096,0.751,1.381,1.012,0.432,0.763,0.725,��,5.7,��
2019/04/28,18:00,0.750,1.097,0.752,1.381,1.012,0.433,0.760,0.725,��,4.7,��
2019/04/28,18:10,0.751,1.096,0.753,1.381,1.012,0.433,0.761,0.725,��,4.8,��
2019/04/28,18:20,0.750,1.096,0.753,1.381,1.013,0.432,0.760,0.724,��,4.8,��
2019/04/28,18:30,0.750,1.096,0.753,1.380,1.015,0.434,0.762,0.725,��,5.4,��
2019/04/28,18:40,0.749,1.095,0.754,1.382,1.015,0.431,0.761,0.725,��,5.5,��
2019/04/28,18:50,0.749,1.097,0.753,1.379,1.017,0.433,0.764,0.725,��,5.5,��
2019/04/28,19:00,0.750,1.097,0.756,1.380,1.015,0.433,0.763,0.724,��,5.6,��
2019/04/28,19:10,0.750,1.096,0.752,1.380,1.017,0.432,0.762,0.726,��,6.3,��
2019/04/28,19:20,0.748,1.098,0.755,1.383,1.015,0.434,0.765,0.723,��,6.6,��
2019/04/28,19:30,0.749,1.093,0.752,1.383,1.014,0.432,0.763,0.725,��,7.5,��
2019/04/28,19:40,0.749,1.097,0.753,1.382,1.016,0.433,0.763,0.723,��,7.2,��
2019/04/28,19:50,0.750,1.095,0.754,1.379,1.018,0.433,0.762,0.724,��,6.7,��
2019/04/28,20:00,0.751,1.095,0.755,1.381,1.016,0.434,0.761,0.724,��,6.4,��
2019/04/28,20:10,0.750,1.094,0.753,1.381,1.016,0.433,0.763,0.723,��,7.4,��
2019/04/28,20:20,0.751,1.095,0.753,1.382,1.013,0.432,0.764,0.724,��쐼,5.9,��
2019/04/28,20:30,0.748,1.095,0.755,1.384,1.017,0.432,0.763,0.725,��쐼,6.0,��
2019/04/28,20:40,0.752,1.098,0.756,1.384,1.016,0.434,0.763,0.725,��,6.6,��
2019/04/28,20:50,0.749,1.096,0.754,1.384,1.017,0.433,0.764,0.723,��쐼,6.0,��
2019/04/28,21:00,0.750,1.096,0.755,1.381,1.013,0.432,0.764,0.725,��,6.3,��
2019/04/28,21:10,0.750,1.096,0.755,1.381,1.017,0.433,0.764,0.723,��,6.2,��
2019/04/28,21:20,0.750,1.098,0.755,1.382,1.017,0.433,0.765,0.725,��,6.2,��
2019/04/28,21:30,0.750,1.095,0.755,1.383,1.018,0.433,0.763,0.723,��,5.8,��
2019/04/28,21:40,0.750,1.097,0.754,1.383,1.015,0.433,0.763,0.723,��,5.1,��
2019/04/28,21:50,0.750,1.096,0.752,1.382,1.016,0.432,0.763,0.725,��,6.7,��
2019/04/28,22:00,0.748,1.097,0.756,1.383,1.016,0.433,0.764,0.724,��쐼,6.5,��
2019/04/28,22:10,0.750,1.095,0.754,1.383,1.015,0.431,0.763,0.725,��쐼,5.5,��
2019/04/28,22:20,0.750,1.096,0.754,1.379,1.017,0.433,0.765,0.722,��쐼,5.6,��
2019/04/28,22:30,0.751,1.095,0.755,1.382,1.013,0.433,0.763,0.725,��쐼,5.8,��
2019/04/28,22:40,0.749,1.094,0.753,1.383,1.017,0.433,0.764,0.725,��쐼,5.5,��
2019/04/28,22:50,0.751,1.094,0.755,1.382,1.017,0.432,0.763,0.722,��쐼,5.9,��
2019/04/28,23:00,0.751,1.094,0.754,1.381,1.015,0.434,0.763,0.724,��쐼,4.5,��
2019/04/28,23:10,0.749,1.094,0.756,1.383,1.016,0.433,0.764,0.724,��쐼,3.9,��
2019/04/28,23:20,0.750,1.094,0.755,1.383,1.015,0.432,0.765,0.725,��쐼,3.9,��
2019/04/28,23:30,0.749,1.093,0.753,1.385,1.016,0.434,0.764,0.723,�쐼,4.1,��
2019/04/28,23:40,0.749,1.094,0.754,1.382,1.015,0.433,0.765,0.723,��쐼,3.4,��
2019/04/28,23:50,0.750,1.094,0.753,1.382,1.016,0.431,0.764,0.723,��쐼,3.6,��
